Weather History for Prairie Du Chien, WI

Change the Weather History Date:

Friday, February 15, 2013

  Actual Average Record
Temperature  
Mean Temperature 18 °F -  
Max Temperature 23 °F 34 °F 58 °F (1984)
Min Temperature 14 °F 15 °F -15 °F (1951)
Degree Days  
Heating Degree Days 46    
Moisture  
Dew Point 7 °F    
Average Humidity 60    
Maximum Humidity 73    
Minimum Humidity 50    
Precipitation  
Precipitation 0.00 in - - ()
Sea Level Pressure  
Sea Level Pressure 30.22 in    
Wind  
Wind Speed 9 mph (WNW)    
Max Wind Speed 20 mph    
Max Gust Speed 25 mph    
Visibility 10 miles    
Events      
Averages and records for this station are not official NWS values.
T = Trace of Precipitation, MM = Missing Value Source: NWS Daily Summary

Daily Weather History Graph

Daily Weather History Graph

Search for Another Location

Airport:

Trip Planner

Search our weather history database for the weather conditions in past years. The results will help you decide how hot, cold, wet, or windy it might be!

Date:

Astronomy

Feb. 15, 2013 Rise Set
Actual Time 7:01 AM CST 5:36 PM CST
Civil Twilight 6:32 AM CST 6:05 PM CST
Nautical Twilight 5:59 AM CST 6:38 PM CST
Astronomical Twilight 5:26 AM CST 7:11 PM CST
Moon 9:27 AM CST (2/15) 11:48 PM CST (2/15)
Length of Visible Light 11h 32m
Length of Day
10h 34m
Waxing Crescent, 30% of the Moon is Illuminated
Feb 15
Waxing Crescent
Feb 17
First Quarter
Feb 25
Full
Mar 4
Last Quarter
Mar 11
New

Hourly Weather History & Observations

Time (CST) Temp. Windchill Dew Point Humidity Pressure Visibility Wind Dir Wind Speed Gust Speed Precip Events Conditions
12:15 AM 23.0 °F 11.1 °F 8.6 °F 54% 30.10 in 10.0 mi NNW 12.7 mph 21.9 mph N/A   Clear
12:35 AM 23.0 °F 9.6 °F 6.8 °F 50% 30.11 in 10.0 mi NNW 16.1 mph 25.3 mph N/A   Clear
12:55 AM 23.0 °F 12.4 °F 6.8 °F 50% 30.12 in 10.0 mi NNW 10.4 mph 16.1 mph N/A   Clear
1:15 AM 21.2 °F 11.7 °F 8.6 °F 58% 30.12 in 10.0 mi NNW 8.1 mph - N/A   Clear
1:35 AM 21.2 °F 10.9 °F 6.8 °F 54% 30.13 in 10.0 mi NNW 9.2 mph - N/A   Clear
1:55 AM 21.2 °F - 6.8 °F 54% 30.14 in 10.0 mi Calm Calm - N/A   Clear
2:15 AM 21.2 °F 14.9 °F 8.6 °F 58% 30.15 in 10.0 mi NW 4.6 mph - N/A   Clear
2:35 AM 21.2 °F 14.9 °F 6.8 °F 54% 30.16 in 10.0 mi NW 4.6 mph - N/A   Clear
2:55 AM 21.2 °F 13.6 °F 6.8 °F 54% 30.16 in 10.0 mi NW 5.8 mph - N/A   Clear
3:15 AM 19.4 °F 12.8 °F 6.8 °F 58% 30.16 in 10.0 mi NW 4.6 mph - N/A   Clear
3:35 AM 19.4 °F 12.8 °F 6.8 °F 58% 30.16 in 10.0 mi NW 4.6 mph - N/A   Clear
3:55 AM 19.4 °F 14.3 °F 6.8 °F 58% 30.17 in 10.0 mi NW 3.5 mph - N/A   Clear
4:15 AM 19.4 °F 10.4 °F 6.8 °F 58% 30.17 in 10.0 mi WNW 6.9 mph - N/A   Clear
4:35 AM 19.4 °F 12.8 °F 6.8 °F 58% 30.18 in 10.0 mi WNW 4.6 mph - N/A   Clear
4:55 AM 17.6 °F 9.3 °F 6.8 °F 63% 30.18 in 10.0 mi WNW 5.8 mph - N/A   Clear
5:15 AM 17.6 °F 10.7 °F 6.8 °F 63% 30.19 in 10.0 mi WNW 4.6 mph - N/A   Clear
5:35 AM 17.6 °F - 6.8 °F 63% 30.19 in 10.0 mi Calm Calm - N/A   Clear
5:55 AM 17.6 °F 10.7 °F 6.8 °F 63% 30.20 in 10.0 mi WNW 4.6 mph - N/A   Clear
6:15 AM 17.6 °F - 6.8 °F 63% 30.20 in 10.0 mi Calm Calm - N/A   Clear
6:35 AM 17.6 °F - 6.8 °F 63% 30.21 in 10.0 mi Calm Calm - N/A   Clear
6:55 AM 17.6 °F 10.7 °F 6.8 °F 63% 30.21 in 10.0 mi WNW 4.6 mph - N/A   Clear
7:15 AM 15.8 °F 10.2 °F 6.8 °F 68% 30.21 in 10.0 mi NW 3.5 mph - N/A   Clear
7:35 AM 17.6 °F 12.3 °F 6.8 °F 63% 30.21 in 10.0 mi WNW 3.5 mph - N/A   Clear
7:55 AM 17.6 °F 10.7 °F 6.8 °F 63% 30.22 in 10.0 mi WNW 4.6 mph - N/A   Clear
8:15 AM 17.6 °F 10.7 °F 6.8 °F 63% 30.23 in 10.0 mi West 4.6 mph - N/A   Clear
8:35 AM 17.6 °F 6.4 °F 8.6 °F 68% 30.23 in 10.0 mi WNW 9.2 mph - N/A   Clear
8:55 AM 19.4 °F 9.5 °F 10.4 °F 68% 30.23 in 10.0 mi West 8.1 mph - N/A   Clear
9:15 AM 19.4 °F 8.6 °F 10.4 °F 68% 30.23 in 10.0 mi West 9.2 mph - N/A   Scattered Clouds
9:35 AM 19.4 °F 9.5 °F 10.4 °F 68% 30.23 in 10.0 mi West 8.1 mph - N/A   Overcast
9:55 AM 19.4 °F 8.6 °F 8.6 °F 63% 30.23 in 10.0 mi WNW 9.2 mph - N/A   Overcast
10:15 AM 21.2 °F 11.7 °F 8.6 °F 58% 30.24 in 10.0 mi West 8.1 mph - N/A   Overcast
10:35 AM 21.2 °F 11.7 °F 8.6 °F 58% 30.23 in 10.0 mi WSW 8.1 mph - N/A   Mostly Cloudy
10:55 AM 21.2 °F 10.9 °F 8.6 °F 58% 30.23 in 10.0 mi West 9.2 mph - N/A   Overcast
11:15 AM 21.2 °F 10.1 °F 5.0 °F 50% 30.24 in 10.0 mi NW 10.4 mph - N/A   Scattered Clouds
11:55 AM 21.2 °F 9.5 °F 6.8 °F 54% 30.24 in 10.0 mi NNW 11.5 mph - N/A   Scattered Clouds
12:15 PM 21.2 °F 8.9 °F 6.8 °F 54% 30.23 in 10.0 mi WNW 12.7 mph - N/A   Clear
12:35 PM 21.2 °F 11.7 °F 5.0 °F 50% 30.23 in 10.0 mi WNW 8.1 mph - N/A   Scattered Clouds
12:55 PM 21.2 °F 9.5 °F 6.8 °F 54% 30.23 in 10.0 mi West 11.5 mph - N/A   Scattered Clouds
1:15 PM 21.2 °F 8.9 °F 8.6 °F 58% 30.22 in 10.0 mi WNW 12.7 mph - N/A   Mostly Cloudy
1:35 PM 21.2 °F 10.9 °F 8.6 °F 58% 30.22 in 10.0 mi NW 9.2 mph - N/A   Mostly Cloudy
1:55 PM 23.0 °F 11.7 °F 8.6 °F 54% 30.21 in 10.0 mi NW 11.5 mph - N/A   Scattered Clouds
2:15 PM 23.0 °F 11.1 °F 8.6 °F 54% 30.21 in 10.0 mi WNW 12.7 mph - N/A   Clear
2:35 PM 23.0 °F 12.4 °F 8.6 °F 54% 30.21 in 10.0 mi West 10.4 mph - N/A   Clear
2:55 PM 23.0 °F 11.7 °F 10.4 °F 59% 30.21 in 10.0 mi West 11.5 mph 16.1 mph N/A   Clear
3:15 PM 23.0 °F 9.2 °F 8.6 °F 54% 30.21 in 10.0 mi West 17.3 mph - N/A   Clear
3:35 PM 23.0 °F 10.6 °F 6.8 °F 50% 30.21 in 10.0 mi NW 13.8 mph 20.7 mph N/A   Clear
3:55 PM 23.0 °F 10.1 °F 6.8 °F 50% 30.22 in 10.0 mi NW 15.0 mph 20.7 mph N/A   Clear
4:15 PM 23.0 °F 9.6 °F 6.8 °F 50% 30.23 in 10.0 mi NW 16.1 mph 23.0 mph N/A   Clear
4:35 PM 21.2 °F 7.3 °F 6.8 °F 54% 30.23 in 10.0 mi NW 16.1 mph 21.9 mph N/A   Clear
4:55 PM 21.2 °F 8.3 °F 8.6 °F 58% 30.24 in 10.0 mi WNW 13.8 mph 24.2 mph N/A   Clear
5:15 PM 21.2 °F 10.1 °F 6.8 °F 54% 30.24 in 10.0 mi NW 10.4 mph - N/A   Clear
5:35 PM 19.4 °F 3.6 °F 6.8 °F 58% 30.24 in 10.0 mi WNW 19.6 mph 23.0 mph N/A   Clear
5:55 PM 19.4 °F 6.6 °F 6.8 °F 58% 30.24 in 10.0 mi WNW 12.7 mph - N/A   Clear
6:15 PM 19.4 °F 7.9 °F 6.8 °F 58% 30.25 in 10.0 mi WNW 10.4 mph - N/A   Clear
6:35 PM 17.6 °F 3.7 °F 6.8 °F 63% 30.25 in 10.0 mi WNW 13.8 mph - N/A   Clear
6:55 PM 17.6 °F 4.3 °F 6.8 °F 63% 30.26 in 10.0 mi WNW 12.7 mph - N/A   Clear
7:15 PM 17.6 °F 4.3 °F 6.8 °F 63% 30.25 in 10.0 mi WNW 12.7 mph - N/A   Clear
7:35 PM 17.6 °F 5.7 °F 6.8 °F 63% 30.26 in 10.0 mi WNW 10.4 mph - N/A   Clear
7:55 PM 15.8 °F 3.4 °F 6.8 °F 68% 30.26 in 10.0 mi WNW 10.4 mph - N/A   Clear
8:15 PM 15.8 °F 4.2 °F 6.8 °F 68% 30.26 in 10.0 mi WNW 9.2 mph - N/A   Clear
8:35 PM 15.8 °F 5.1 °F 6.8 °F 68% 30.26 in 10.0 mi WNW 8.1 mph - N/A   Clear
8:55 PM 15.8 °F 4.2 °F 6.8 °F 68% 30.26 in 10.0 mi WNW 9.2 mph - N/A   Clear
9:15 PM 15.8 °F 3.4 °F 6.8 °F 68% 30.26 in 10.0 mi WNW 10.4 mph - N/A   Clear
9:35 PM 14.0 °F 2.9 °F 6.8 °F 73% 30.27 in 10.0 mi WNW 8.1 mph - N/A   Clear
9:55 PM 14.0 °F 5.1 °F 5.0 °F 67% 30.27 in 10.0 mi NW 5.8 mph - N/A   Clear
10:15 PM 14.0 °F 5.1 °F 5.0 °F 67% 30.27 in 10.0 mi WNW 5.8 mph - N/A   Clear
10:35 PM 14.0 °F 5.1 °F 5.0 °F 67% 30.26 in 10.0 mi NW 5.8 mph - N/A   Clear
10:55 PM 14.0 °F 5.1 °F 5.0 °F 67% 30.26 in 10.0 mi WNW 5.8 mph - N/A   Clear
11:15 PM 14.0 °F 6.5 °F 5.0 °F 67% 30.26 in 10.0 mi WNW 4.6 mph - N/A   Clear
11:35 PM 14.0 °F - 5.0 °F 67% 30.26 in 10.0 mi Calm Calm - N/A   Clear
11:55 PM 14.0 °F 6.5 °F 5.0 °F 67% 30.26 in 10.0 mi WNW 4.6 mph - N/A   Clear